TimeCDT,TemperatureF,Dew PointF,Humidity,Sea Level PressureIn,VisibilityMPH,Wind Direction,Wind SpeedMPH,Gust SpeedMPH,PrecipitationIn,Events,Conditions,WindDirDegrees,DateUTC
12:53 AM,55.0,39.9,57,30.07,10.0,North,17.3,28.8,N/A,,Overcast,360,2012-10-26 05:53:00
1:53 AM,54.0,39.0,57,30.10,10.0,North,18.4,27.6,N/A,,Overcast,350,2012-10-26 06:53:00
2:53 AM,52.0,39.9,63,30.10,10.0,North,24.2,28.8,0.00,Rain,Light Rain,360,2012-10-26 07:53:00
3:53 AM,50.0,43.0,77,30.11,10.0,NNW,16.1,-,0.06,Rain,Light Rain,340,2012-10-26 08:53:00
4:53 AM,50.0,39.9,68,30.12,10.0,North,15.0,-,0.01,,Overcast,350,2012-10-26 09:53:00
5:53 AM,50.0,39.9,68,30.14,10.0,North,16.1,21.9,N/A,,Overcast,350,2012-10-26 10:53:00
6:53 AM,50.0,39.0,66,30.16,10.0,North,18.4,-,N/A,,Overcast,350,2012-10-26 11:53:00
7:46 AM,48.2,39.2,71,30.20,10.0,NNW,15.0,24.2,N/A,,Overcast,340,2012-10-26 12:46:00
8:53 AM,48.9,39.0,69,30.21,10.0,NNW,18.4,24.2,N/A,,Overcast,340,2012-10-26 13:53:00
9:53 AM,48.9,39.9,71,30.24,10.0,North,18.4,-,N/A,,Overcast,350,2012-10-26 14:53:00
10:53 AM,50.0,39.0,66,30.25,10.0,NNW,21.9,27.6,N/A,,Overcast,340,2012-10-26 15:53:00
11:53 AM,50.0,39.0,66,30.27,10.0,NNW,18.4,-,N/A,,Overcast,340,2012-10-26 16:53:00
12:53 PM,50.0,39.0,66,30.28,10.0,NNW,19.6,24.2,N/A,,Overcast,340,2012-10-26 17:53:00
1:53 PM,51.1,37.9,61,30.25,10.0,NW,18.4,-,N/A,,Overcast,320,2012-10-26 18:53:00
2:40 PM,51.8,37.4,58,30.25,10.0,North,20.7,26.5,N/A,,Mostly Cloudy,350,2012-10-26 19:40:00
2:53 PM,53.1,37.0,55,30.25,10.0,North,13.8,-,N/A,,Mostly Cloudy,350,2012-10-26 19:53:00
3:53 PM,55.9,36.0,47,30.23,10.0,NNW,23.0,26.5,N/A,,Clear,340,2012-10-26 20:53:00
4:11 PM,55.4,35.6,47,30.23,2.5,North,19.6,25.3,N/A,,Haze,350,2012-10-26 21:11:00
4:20 PM,55.4,35.6,47,30.23,10.0,NNW,19.6,28.8,N/A,,Clear,330,2012-10-26 21:20:00
4:53 PM,55.0,35.1,47,30.22,10.0,North,18.4,27.6,N/A,,Clear,350,2012-10-26 21:53:00
5:53 PM,53.1,33.1,47,30.24,10.0,North,19.6,26.5,N/A,,Clear,350,2012-10-26 22:53:00
6:53 PM,52.0,33.1,49,30.25,10.0,North,15.0,20.7,N/A,,Clear,350,2012-10-26 23:53:00
7:53 PM,50.0,32.0,50,30.29,10.0,NNW,10.4,-,N/A,,Clear,340,2012-10-27 00:53:00
8:53 PM,48.9,32.0,52,30.30,10.0,NNW,9.2,-,N/A,,Clear,330,2012-10-27 01:53:00
9:53 PM,48.0,33.1,56,30.31,10.0,NNW,9.2,-,N/A,,Clear,330,2012-10-27 02:53:00
11:53 PM,48.0,30.9,52,30.31,10.0,North,8.1,-,N/A,,Clear,10,2012-10-27 04:53:00